Regional Weather Roundup
Issued by NWS

Home | Current Version | Previous Version | Text Only | Print | Product List | Glossary Off
Versions: 1 2 3 4 5 6 7 8 9 10 11 12 13 14 15 16 17 18 19 20 21 22 23 24 25 26 27 28 29 30 31 32 33 34 35 36 37 38 39 40 41 42 43 44 45 46 47 48 49 50

000
ASUS43 KLOT 271300
RWRIL

ILLINOIS REGIONAL WEATHER ROUNDUP
NATIONAL WEATHER SERVICE CHICAGO/ROMEOVILLE IL
700 AM CST TUE JAN 27 2015

NOTE: "FAIR" INDICATES FEW OR NO CLOUDS BELOW 12,000 FEET WITH NO
SIGNIFICANT WEATHER AND/OR OBSTRUCTIONS TO VISIBILITY.

* THESE STATIONS ARE NOT UNDER NWS QUALITY CONTROL. THEY ALSO MAY NOT
  REPORT WEATHER SUCH AS PRECIPITATION OR FOG.

ILZ001-002-007-009-015-016-024-271400-
NORTHWEST ILLINOIS

CITY           SKY/WX    TMP DP  RH WIND       PRES   REMARKS
MOLINE         CLOUDY    31  26  82 N9        30.08R WCI  23
STERLING*      CLOUDY    27  25  93 N10       30.08R WCI  17
$$

ILZ003-004-008-010-011-017-018-271400-
NORTH CENTRAL ILLINOIS

CITY           SKY/WX    TMP DP  RH WIND       PRES   REMARKS
ROCKFORD       CLOUDY    26  22  84 N10       30.09R FOG     WCI  16
$$

ILZ005-006-012>014-019>023-271400-
NORTHEAST ILLINOIS

CITY           SKY/WX    TMP DP  RH WIND       PRES   REMARKS
CHICAGO-OHARE  FRZ DRZL  27  24  89 N8        30.05R WCI  19
CHICAGO-MIDWAY CLOUDY    30  25  81 NE8       30.06R HAZE    WCI  22
AURORA         CLOUDY    28  23  81 N7        30.06R HAZE    WCI  21
WAUKEGAN       CLOUDY    27  21  78 NE5       30.06R WCI  22
DUPAGE AIRPORT CLOUDY    27  24  89 N7        30.05R FOG     WCI  19
WHEELING       CLOUDY    27  24  89 N6        30.08R WCI  20
NORTHERLY ISL    N/A     28  24  85 NE12        N/A  WCI  18
$$

LMZ740>746-271400-
SOUTHERN LAKE MICHIGAN

STATION/POSITION SKY/WX   TEMP    WIND        PRES    VSBY  WAVE
                          AIR SEA DIR/SP/G                  HT/PER
                          (F)     (DEG/KT/KT) (MB)    (MI)  (FT/S)
WAUKEGAN HARBOR            28      80/  8/  9   N/A
HARRISON CRIB              28      50/  7/  9   N/A
BURNHAM HARBOR             28      50/  5/  7   N/A
CALUMET HARBOR             27      40/  6/  7   N/A
MICHIGAN CITY              23      60/  6/  7   N/A
$$

ILZ025>027-034>036-040-047-049-050-058-095>099-271400-
WEST-CENTRAL ILLINOIS

CITY           SKY/WX    TMP DP  RH WIND       PRES   REMARKS
QUINCY         CLEAR     30  28  92 NW6       30.07R WCI  24
$$

ILZ028>032-037-038-041>044-048-051>054-059>061-271400-
CENTRAL ILLINOIS

CITY           SKY/WX    TMP DP  RH WIND       PRES   REMARKS
DECATUR        CLOUDY    31  29  92 N12       30.03R FOG     WCI  22
PEORIA         CLOUDY    31  27  85 N5        30.05R FOG     WCI  26
SPRINGFIELD    CLOUDY    31  29  92 NW7       30.06R WCI  24
TAYLORVILLE    NOT AVBL
$$

ILZ033-039-045-046-055>057-062-063-271400-
EAST-CENTRAL ILLINOIS

CITY           SKY/WX    TMP DP  RH WIND       PRES   REMARKS
CHAMPAIGN      CLOUDY    31  28  89 NE9       30.01R WCI  23
MATTOON        CLOUDY    31  29  92 N10       30.01R FOG     WCI  22
$$

ILZ079-100>102-271400-
SOUTHWEST ILLINOIS

CITY           SKY/WX    TMP DP  RH WIND       PRES   REMARKS
ALTON          CLOUDY    36  34  93 N10       30.06R WCI  28
BELLEVILLE     CLOUDY    33  32  99 NW6       30.06R WCI  27
CAHOKIA*       PTCLDY    36  33  89 NW8       30.07R WCI  30
$$

ILZ064>066-069>071-074>076-080>082-084>086-088>090-092>094-271400-
SOUTH-CENTRAL ILLINOIS

CITY           SKY/WX    TMP DP  RH WIND       PRES   REMARKS
CARBONDALE     CLEAR     31  28  89 NW3       30.04R
MARION         CLEAR     34  32  93 NW6       30.04R WCI  29
MT. VERNON     CLEAR     34  28  80 N3        30.04R
$$

ILZ067-068-072-073-078-083-087-091-271400-
SOUTHEAST ILLINOIS

CITY           SKY/WX    TMP DP  RH WIND       PRES   REMARKS
LAWRENCEVILLE  FOG       31  30  96 N5        30.03R VSB 1   WCI  26
$$

ABBREVIATIONS USED IN REMARKS
   TC - TEMPERATURE IN CELSIUS
  WCI - WIND CHILL INDEX
   HX - HEAT INDEX
  VSB - VISIBILITY
$$



USA.gov is the U.S. government's official web portal to all federal, state and local government web resources and services.